{"data":{"norad_id":67037,"intl_designator":"2025-294H","name":"STARLINK-35732","alt_names":[],"object_type":"PAYLOAD","status":"ACTIVE","operator":null,"country":"US","launch_date":"2025-12-11","launch_site_code":"AFETR","launch_vehicle":null,"mission":null,"orbit_class":"UNKNOWN","rcs_meters":null,"size_class":null,"mass_kg":null,"dimensions":null,"purposes":["comms"],"wikipedia_slug":null,"has_3d_model":false,"image_url":null,"decayed_at":null,"tle_current":{"epoch":"2026-05-24T21:53:31.665120Z","epoch_age_seconds":78780,"freshness":"FRESH","line1":"1 67037U 25294H   26144.91217205  .00029279  00000+0  10687-2 0  9991","line2":"2 67037  43.0039 327.8578 0001812 269.6241  90.4403 15.27598752 26454","mean_motion":15.27598752,"eccentricity":0.0001812,"inclination_deg":43.0039,"raan_deg":327.8578,"arg_perigee_deg":269.6241,"mean_anomaly_deg":90.4403,"bstar":0.0010687,"rev_number":2645,"period_min":94.265591544552,"perigee_km":481.74970963376,"apogee_km":484.23618312633,"semimajor_km":6861.12994638,"source":"CELESTRAK","updated_at":"2026-05-25T13:38:21.437645Z"}}}